Hervey Bay Observation History
Time Wind Speed Temp Pressure Rel. Hum Rain
04/06:30am SSW 7-10 kts 12.0°c 1024.3 hPa 80% 0.0mm
04/06:00am SSW 6-9 kts 11.5°c 1024.0 hPa 82% 0.0mm
04/05:30am SSW 8-11 kts 11.4°c 1023.7 hPa 82% 0.0mm
04/05:00am SW 7-10 kts 11.1°c 1023.3 hPa 81% 0.0mm
04/04:30am SSW 9-11 kts 11.2°c 1023.0 hPa 79% 0.0mm
04/04:00am SSW 7-10 kts 11.1°c 1023.0 hPa 80% 0.0mm
04/03:30am SSW 8-11 kts 11.6°c 1023.1 hPa 79% 0.0mm
04/03:00am SSW 7-9 kts 11.4°c 1023.1 hPa 80% 0.0mm
04/02:30am SSW 8-11 kts 11.0°c 1023.2 hPa 79% 0.0mm
04/02:00am SW 7-10 kts 11.1°c 1023.3 hPa 79% 0.0mm
04/01:30am SW 8-11 kts 11.3°c 1023.4 hPa 79% 0.0mm
04/01:00am SSW 6-9 kts 10.9°c 1023.5 hPa 81% 0.0mm
04/12:30am SW 6-8 kts 10.9°c 1023.8 hPa 83% 0.0mm
04/12:00am SW 6-7 kts 10.8°c 1023.8 hPa 84% 0.0mm
Time Wind Speed Temp Pressure Rel. Hum Rain
03/11:30pm SW 5-7 kts 10.4°c 1023.8 hPa 86% 0.0mm
03/11:00pm SW 5-7 kts 10.3°c 1023.9 hPa 87% 0.0mm
03/10:30pm SW 5-7 kts 10.4°c 1023.9 hPa 87% 0.0mm
03/10:00pm SSW 6-7 kts 10.2°c 1023.8 hPa 88% 0.0mm
03/09:30pm SSW 5-6 kts 9.9°c 1023.7 hPa 90% 0.0mm
03/09:00pm SSW 5-6 kts 8.4°c 1023.6 hPa 88% 0.0mm
03/08:30pm SW 2-5 kts 8.4°c 1023.5 hPa 86% 0.0mm
03/08:00pm CALM 0 kts 9.1°c 1023.2 hPa 85% 0.0mm
03/07:30pm SW 3-4 kts 9.9°c 1022.6 hPa 83% 0.0mm
03/07:00pm SSW 3-4 kts 10.9°c 1022.2 hPa 78% 0.0mm
03/06:30pm ESE 1-3 kts 12.8°c 1021.6 hPa 68% 0.0mm
03/06:00pm SE 5-7 kts 15.7°c 1021.2 hPa 62% 0.0mm
03/05:30pm SE 7-9 kts 16.2°c 1020.9 hPa 58% 0.0mm
03/05:00pm ESE 8-11 kts 16.8°c 1020.6 hPa 55% 0.0mm
03/04:30pm ESE 8-11 kts 18.2°c 1020.1 hPa 51% 0.0mm
03/04:00pm SE 6-9 kts 19.7°c 1019.6 hPa 37% 0.0mm
03/03:30pm SE 6-8 kts 20.5°c 1019.4 hPa 35% 0.0mm
03/03:00pm SE 6-9 kts 20.6°c 1019.3 hPa 32% 0.0mm
03/02:30pm SE 5-8 kts 20.6°c 1019.1 hPa 32% 0.0mm
03/02:00pm SE 7-10 kts 20.6°c 1019.2 hPa 33% 0.0mm
03/01:30pm SE 7-10 kts 20.3°c 1019.4 hPa 34% 0.0mm
03/01:00pm ESE 9-12 kts 20.8°c 1019.5 hPa 33% 0.0mm
03/12:30pm SE 6-9 kts 19.3°c 1020.1 hPa 36% 0.0mm
03/12:00pm S 7-11 kts 19.3°c 1020.6 hPa 30% 0.0mm
03/11:30am S 6-13 kts 18.9°c 1021.2 hPa 32% 0.0mm
03/11:00am SSW 8-13 kts 18.2°c 1021.6 hPa 33% 0.0mm
03/10:30am SSW 8-11 kts 17.1°c 1021.9 hPa 40% 0.0mm
03/10:00am SW 10-13 kts 16.1°c 1022.1 hPa 42% 0.0mm
03/09:30am SW 10-15 kts 14.8°c 1022.4 hPa 44% 0.0mm
03/09:00am SW 9-14 kts 13.1°c 1022.5 hPa 49% 0.0mm
03/08:30am SW 6-12 kts 12.0°c 1022.4 hPa 51% 0.0mm
03/08:00am WSW 7-9 kts 10.5°c 1022.1 hPa 54% 0.0mm
03/07:30am SW 2-5 kts 9.0°c 1021.9 hPa 60% 0.0mm
03/07:00am W 3 kts 7.1°c 1021.7 hPa 70% 0.0mm
03/06:30am W 4-5 kts 7.1°c 1021.4 hPa 63% 0.0mm
03/06:00am WSW 7-11 kts 8.1°c 1021.0 hPa 61% 0.0mm
03/05:30am SW 3-5 kts 5.9°c 1021.0 hPa 69% 0.0mm
03/05:00am W 5-6 kts 7.7°c 1020.7 hPa 61% 0.0mm
03/04:30am WSW 4-7 kts 7.4°c 1020.6 hPa 63% 0.0mm
03/04:00am W 6-8 kts 7.5°c 1020.4 hPa 62% 0.0mm
03/03:30am WSW 6-9 kts 7.9°c 1020.5 hPa 61% 0.0mm
03/03:00am WSW 5-8 kts 8.1°c 1020.7 hPa 60% 0.0mm
03/02:30am SSW 4-6 kts 6.7°c 1021.0 hPa 67% 0.0mm
03/02:00am CALM 0 kts 8.3°c 1021.3 hPa 57% 0.0mm
03/01:30am WSW 5-8 kts 10.0°c 1021.3 hPa 50% 0.0mm
03/01:00am W 5-9 kts 10.9°c 1021.7 hPa 47% 0.0mm
03/12:30am WSW 6-8 kts 11.4°c 1021.6 hPa 44% 0.0mm
03/12:00am WSW 7-9 kts 12.4°c 1021.9 hPa 42% 0.0mm
Time Wind Speed Temp Pressure Rel. Hum Rain
02/11:30pm WSW 8-9 kts 12.0°c 1022.1 hPa 44% 0.0mm
02/11:00pm WSW 6-8 kts 11.4°c 1022.4 hPa 46% 0.0mm
02/10:30pm WSW 6-8 kts 11.5°c 1022.5 hPa 45% 0.0mm
02/10:00pm WSW 7-10 kts 12.9°c 1022.4 hPa 40% 0.0mm
02/09:30pm WSW 7-11 kts 13.7°c 1022.2 hPa 37% 0.0mm
02/09:00pm WSW 6-12 kts 13.8°c 1022.0 hPa 38% 0.0mm
02/08:30pm WSW 6-8 kts 13.0°c 1021.8 hPa 42% 0.0mm
02/08:00pm WSW 7-9 kts 12.6°c 1021.4 hPa 46% 0.0mm
02/07:30pm WSW 6-8 kts 9.7°c 1021.0 hPa 70% 0.0mm
02/07:00pm SW 4-6 kts 9.3°c 1020.7 hPa 78% 0.0mm
02/06:30pm WSW 5-6 kts 9.6°c 1020.2 hPa 74% 0.0mm
02/06:00pm WSW 4-5 kts 11.5°c 1019.4 hPa 71% 0.0mm
02/05:30pm SW 4-5 kts 13.0°c 1018.8 hPa 64% 0.0mm
02/05:00pm W 2-3 kts 16.8°c 1018.5 hPa 48% 0.0mm
02/04:30pm SW 4-6 kts 21.0°c 1018.2 hPa 26% 0.0mm
02/04:00pm SW 7-10 kts 21.7°c 1017.7 hPa 22% 0.0mm
02/03:30pm SW 7-11 kts 22.1°c 1017.5 hPa 20% 0.0mm
02/03:00pm SW 10-15 kts 22.5°c 1017.4 hPa 19% 0.0mm
02/02:30pm SW 9-14 kts 22.7°c 1017.4 hPa 20% 0.0mm
02/02:00pm WSW 12-17 kts 22.4°c 1017.6 hPa 21% 0.0mm
02/01:30pm WSW 14-21 kts 22.0°c 1017.7 hPa 20% 0.0mm
02/01:00pm SW 15-23 kts 21.9°c 1017.9 hPa 20% 0.0mm
02/12:30pm WSW 12-19 kts 21.9°c 1018.0 hPa 23% 0.0mm
02/12:00pm WSW 13-19 kts 21.6°c 1018.5 hPa 24% 0.0mm
02/11:30am WSW 11-16 kts 21.4°c 1018.6 hPa 30% 0.0mm
02/11:00am SW 9-13 kts 20.7°c 1018.9 hPa 35% 0.0mm
02/10:30am SW 12-16 kts 20.0°c 1019.1 hPa 35% 0.0mm
02/10:00am WSW 12-17 kts 19.6°c 1019.3 hPa 38% 0.0mm
02/09:30am SW 11-17 kts 18.9°c 1019.3 hPa 42% 0.0mm
02/09:00am WSW 10-16 kts 18.4°c 1019.2 hPa 46% 0.0mm
02/08:30am SW 10-15 kts 17.9°c 1019.2 hPa 53% 0.0mm
02/08:00am SW 9-14 kts 17.2°c 1018.9 hPa 56% 0.0mm
02/07:30am WSW 7-10 kts 17.0°c 1018.7 hPa 60% 0.0mm
02/07:00am WSW 7-9 kts 16.1°c 1018.5 hPa 69% 0.0mm
02/06:30am WSW 8-11 kts 16.4°c 1018.2 hPa 73% 0.0mm
02/06:00am WSW 8-11 kts 16.7°c 1017.6 hPa 80% 0.0mm
02/05:30am WSW 7-10 kts 17.2°c 1017.0 hPa 85% 0.0mm
02/05:00am WSW 7-10 kts 17.9°c 1016.7 hPa 91% 0.0mm
02/04:30am WSW 8-11 kts 18.5°c 1016.6 hPa 93% 0.0mm
02/04:00am WNW 5-7 kts 18.9°c 1015.9 hPa 94% 0.0mm
02/03:30am NNW 6-7 kts 19.0°c 1015.5 hPa 93% 0.0mm
02/03:00am NNW 6-8 kts 19.1°c 1015.6 hPa 94% 0.0mm
02/02:30am NNW 6-7 kts 19.4°c 1015.7 hPa 95% 0.0mm
02/02:00am NNW 5-6 kts 19.5°c 1015.9 hPa 97% 0.0mm
02/01:30am N 4-5 kts 16.8°c 1016.0 hPa 92% 0.0mm
02/01:00am CALM 0-2 kts 16.2°c 1016.3 hPa 90% 0.0mm
02/12:30am NNE 1-5 kts 16.7°c 1016.4 hPa 89% 0.0mm
02/12:00am NNE 3-4 kts 17.1°c 1016.5 hPa 88% 0.0mm